Time,TemperatureF,DewpointF,PressureIn,WindDirection,WindDirectionDegrees,WindSpeedMPH,WindSpeedGustMPH,Humidity,HourlyPrecipIn,Conditions,Clouds,dailyrainin,SolarRadiationWatts/m^2,SoftwareType,DateUTC
2013-01-12 00:00:00,68.0,66.5,29.74,SSE,156,7.0,7.0,95,0.00,,,0.00,0,Wunderground v.1.15,2013-01-12 06:00:00,
2013-01-12 00:05:00,68.0,66.5,29.74,SE,146,5.0,9.0,95,0.00,,,0.00,0,Wunderground v.1.15,2013-01-12 06:05:00,
2013-01-12 00:10:00,68.0,66.5,29.74,SSE,156,7.0,7.0,95,0.00,,,0.00,0,Wunderground v.1.15,2013-01-12 06:10:00,
2013-01-12 00:20:00,68.0,66.5,29.74,SSE,160,7.0,7.0,95,0.00,,,0.00,0,Wunderground v.1.15,2013-01-12 06:20:00,
2013-01-12 00:25:00,67.9,66.4,29.74,South,169,5.0,7.0,95,0.00,,,0.00,0,Wunderground v.1.15,2013-01-12 06:25:00,
2013-01-12 00:30:00,67.9,66.4,29.74,South,174,3.0,4.0,95,0.00,,,0.00,0,Wunderground v.1.15,2013-01-12 06:30:00,
2013-01-12 00:35:00,67.9,66.4,29.74,SSE,160,4.0,7.0,95,0.00,,,0.00,0,Wunderground v.1.15,2013-01-12 06:35:00,
2013-01-12 00:40:00,67.9,66.4,29.74,SSE,163,5.0,5.0,95,0.00,,,0.00,0,Wunderground v.1.15,2013-01-12 06:40:00,
2013-01-12 00:45:00,67.9,66.4,29.73,SSE,163,4.0,6.0,95,0.00,,,0.00,0,Wunderground v.1.15,2013-01-12 06:45:00,
2013-01-12 00:50:00,67.9,66.4,29.73,SSE,160,4.0,6.0,95,0.00,,,0.00,0,Wunderground v.1.15,2013-01-12 06:50:00,
2013-01-12 00:55:00,67.8,66.3,29.73,SSE,153,5.0,6.0,95,0.00,,,0.00,0,Wunderground v.1.15,2013-01-12 06:55:00,
2013-01-12 01:00:00,67.8,66.3,29.73,SSE,153,4.0,6.0,95,0.00,,,0.00,0,Wunderground v.1.15,2013-01-12 07:00:00,
2013-01-12 01:05:00,67.8,66.3,29.73,SSE,153,3.0,6.0,95,0.00,,,0.00,0,Wunderground v.1.15,2013-01-12 07:05:00,
2013-01-12 01:10:00,67.8,66.3,29.73,SSE,154,5.0,5.0,95,0.00,,,0.00,0,Wunderground v.1.15,2013-01-12 07:10:00,
2013-01-12 01:15:00,67.7,66.2,29.73,SSE,152,5.0,5.0,95,0.00,,,0.00,0,Wunderground v.1.15,2013-01-12 07:15:00,
2013-01-12 01:20:00,67.7,66.2,29.73,SSE,151,6.0,6.0,95,0.00,,,0.00,0,Wunderground v.1.15,2013-01-12 07:20:00,
2013-01-12 01:25:00,67.7,66.2,29.73,SSE,159,6.0,6.0,95,0.00,,,0.00,0,Wunderground v.1.15,2013-01-12 07:25:00,
2013-01-12 01:30:00,67.7,66.2,29.73,SSE,166,5.0,5.0,95,0.00,,,0.00,0,Wunderground v.1.15,2013-01-12 07:30:00,
2013-01-12 01:35:00,67.7,66.2,29.73,SSE,162,5.0,5.0,95,0.00,,,0.00,0,Wunderground v.1.15,2013-01-12 07:35:00,
2013-01-12 01:40:00,67.7,66.2,29.73,SSE,162,4.0,5.0,95,0.00,,,0.00,0,Wunderground v.1.15,2013-01-12 07:40:00,
2013-01-12 01:45:00,67.7,66.2,29.73,SSE,164,3.0,5.0,95,0.00,,,0.00,0,Wunderground v.1.15,2013-01-12 07:45:00,
2013-01-12 01:50:00,67.7,66.2,29.73,SSE,164,3.0,3.0,95,0.00,,,0.00,0,Wunderground v.1.15,2013-01-12 07:50:00,
2013-01-12 02:00:00,67.8,66.3,29.73,SSE,166,3.0,5.0,95,0.00,,,0.00,0,Wunderground v.1.15,2013-01-12 08:00:00,
2013-01-12 02:05:00,67.8,66.3,29.73,SSE,166,3.0,5.0,95,0.00,,,0.00,0,Wunderground v.1.15,2013-01-12 08:05:00,
2013-01-12 02:10:00,67.8,66.3,29.73,SSE,167,1.0,1.0,95,0.00,,,0.00,0,Wunderground v.1.15,2013-01-12 08:10:00,
2013-01-12 02:15:00,67.8,66.3,29.73,SSE,167,3.0,3.0,95,0.00,,,0.00,0,Wunderground v.1.15,2013-01-12 08:15:00,
2013-01-12 02:25:00,67.9,66.4,29.73,SSE,157,4.0,6.0,95,0.00,,,0.00,0,Wunderground v.1.15,2013-01-12 08:25:00,
2013-01-12 02:30:00,67.9,66.4,29.73,SSE,161,3.0,8.0,95,0.00,,,0.00,0,Wunderground v.1.15,2013-01-12 08:30:00,
2013-01-12 02:35:00,68.0,66.5,29.73,SSE,161,4.0,8.0,95,0.00,,,0.00,0,Wunderground v.1.15,2013-01-12 08:35:00,
2013-01-12 02:45:00,68.0,66.5,29.72,SSE,163,5.0,6.0,95,0.00,,,0.00,0,Wunderground v.1.15,2013-01-12 08:45:00,
2013-01-12 02:50:00,68.0,66.5,29.72,SSE,163,3.0,3.0,95,0.00,,,0.00,0,Wunderground v.1.15,2013-01-12 08:50:00,
2013-01-12 02:55:00,68.0,66.5,29.72,SSE,163,2.0,3.0,95,0.00,,,0.00,0,Wunderground v.1.15,2013-01-12 08:55:00,
2013-01-12 03:00:00,68.0,66.5,29.72,SSE,163,1.0,1.0,95,0.00,,,0.00,0,Wunderground v.1.15,2013-01-12 09:00:00,
2013-01-12 03:10:00,68.0,66.5,29.72,SSE,163,0.0,0.0,95,0.00,,,0.00,0,Wunderground v.1.15,2013-01-12 09:10:00,
2013-01-12 03:15:00,68.0,66.5,29.70,SSE,163,1.0,4.0,95,0.00,,,0.00,0,Wunderground v.1.15,2013-01-12 09:15:00,
2013-01-12 03:20:00,68.1,66.6,29.70,SSE,163,2.0,2.0,95,0.00,,,0.00,0,Wunderground v.1.15,2013-01-12 09:20:00,
2013-01-12 03:30:00,68.2,66.7,29.70,SSE,160,3.0,3.0,95,0.00,,,0.00,0,Wunderground v.1.15,2013-01-12 09:30:00,
2013-01-12 03:35:00,68.2,66.7,29.70,SSE,163,4.0,7.0,95,0.00,,,0.00,0,Wunderground v.1.15,2013-01-12 09:35:00,
2013-01-12 03:45:00,68.3,66.8,29.70,SSE,163,6.0,6.0,95,0.00,,,0.00,0,Wunderground v.1.15,2013-01-12 09:45:00,
2013-01-12 03:55:00,68.4,66.9,29.70,SSE,165,7.0,11.0,95,0.00,,,0.00,0,Wunderground v.1.15,2013-01-12 09:55:00,
2013-01-12 04:00:00,68.5,67.0,29.69,SSE,165,7.0,7.0,95,0.00,,,0.00,0,Wunderground v.1.15,2013-01-12 10:00:00,
2013-01-12 04:05:00,68.5,67.0,29.69,South,171,7.0,7.0,95,0.00,,,0.00,0,Wunderground v.1.15,2013-01-12 10:05:00,
2013-01-12 04:15:00,68.5,67.0,29.68,South,170,5.0,7.0,95,0.00,,,0.00,0,Wunderground v.1.15,2013-01-12 10:15:00,
2013-01-12 04:20:00,68.5,67.0,29.68,South,171,5.0,7.0,95,0.00,,,0.00,0,Wunderground v.1.15,2013-01-12 10:20:00,
2013-01-12 04:30:00,68.4,66.9,29.68,South,171,6.0,6.0,95,0.00,,,0.00,0,Wunderground v.1.15,2013-01-12 10:30:00,
2013-01-12 04:35:00,68.4,66.9,29.68,South,173,6.0,8.0,95,0.00,,,0.00,0,Wunderground v.1.15,2013-01-12 10:35:00,
2013-01-12 04:40:00,68.4,66.9,29.68,South,175,5.0,5.0,95,0.00,,,0.00,0,Wunderground v.1.15,2013-01-12 10:40:00,
2013-01-12 04:50:00,68.3,66.8,29.67,South,170,4.0,7.0,95,0.00,,,0.00,0,Wunderground v.1.15,2013-01-12 10:50:00,
2013-01-12 04:55:00,68.3,66.8,29.67,South,171,5.0,7.0,95,0.00,,,0.00,0,Wunderground v.1.15,2013-01-12 10:55:00,
2013-01-12 05:00:00,68.3,66.8,29.67,South,170,5.0,5.0,95,0.00,,,0.00,0,Wunderground v.1.15,2013-01-12 11:00:00,
2013-01-12 05:05:00,68.3,66.8,29.67,SSE,167,4.0,7.0,95,0.00,,,0.00,0,Wunderground v.1.15,2013-01-12 11:05:00,
2013-01-12 05:10:00,68.3,66.8,29.67,SSE,168,5.0,5.0,95,0.00,,,0.00,0,Wunderground v.1.15,2013-01-12 11:10:00,
2013-01-12 05:15:00,68.3,66.8,29.67,South,169,5.0,6.0,95,0.00,,,0.00,0,Wunderground v.1.15,2013-01-12 11:15:00,
2013-01-12 05:20:00,68.2,67.0,29.67,South,169,4.0,4.0,96,0.00,,,0.00,0,Wunderground v.1.15,2013-01-12 11:20:00,
2013-01-12 05:30:00,68.2,67.0,29.66,South,169,1.0,1.0,96,0.00,,,0.00,0,Wunderground v.1.15,2013-01-12 11:30:00,
2013-01-12 05:35:00,68.1,66.6,29.66,South,169,2.0,5.0,95,0.00,,,0.00,0,Wunderground v.1.15,2013-01-12 11:35:00,
2013-01-12 05:45:00,68.1,66.6,29.67,South,169,0.0,1.0,95,0.00,,,0.00,0,Wunderground v.1.15,2013-01-12 11:45:00,
2013-01-12 05:50:00,68.0,66.8,29.67,South,169,0.0,0.0,96,0.00,,,0.00,0,Wunderground v.1.15,2013-01-12 11:50:00,
2013-01-12 06:00:00,68.0,66.8,29.66,South,169,0.0,0.0,96,0.00,,,0.00,0,Wunderground v.1.15,2013-01-12 12:00:00,
2013-01-12 06:05:00,68.0,66.8,29.66,South,169,0.0,0.0,96,0.00,,,0.00,0,Wunderground v.1.15,2013-01-12 12:05:00,
2013-01-12 06:10:00,68.0,66.8,29.66,South,169,0.0,0.0,96,0.00,,,0.00,0,Wunderground v.1.15,2013-01-12 12:10:00,
2013-01-12 06:15:00,68.0,66.8,29.67,South,169,0.0,0.0,96,0.00,,,0.00,0,Wunderground v.1.15,2013-01-12 12:15:00,
2013-01-12 06:20:00,68.0,66.8,29.67,South,169,0.0,0.0,96,0.00,,,0.00,0,Wunderground v.1.15,2013-01-12 12:20:00,
2013-01-12 06:25:00,68.0,66.8,29.67,South,169,0.0,0.0,96,0.00,,,0.00,0,Wunderground v.1.15,2013-01-12 12:25:00,
2013-01-12 06:30:00,68.0,66.8,29.66,South,169,0.0,0.0,96,0.00,,,0.00,0,Wunderground v.1.15,2013-01-12 12:30:00,
2013-01-12 06:35:00,68.0,66.8,29.66,South,169,0.0,0.0,96,0.00,,,0.00,0,Wunderground v.1.15,2013-01-12 12:35:00,
2013-01-12 06:40:00,68.0,66.8,29.66,South,169,1.0,1.0,96,0.00,,,0.00,0,Wunderground v.1.15,2013-01-12 12:40:00,
2013-01-12 06:45:00,68.0,66.8,29.65,SSE,153,2.0,6.0,96,0.00,,,0.00,0,Wunderground v.1.15,2013-01-12 12:45:00,
2013-01-12 06:50:00,68.1,66.9,29.65,SSE,153,2.0,2.0,96,0.00,,,0.00,0,Wunderground v.1.15,2013-01-12 12:50:00,
2013-01-12 06:55:00,68.2,67.0,29.65,SE,146,3.0,4.0,96,0.00,,,0.00,0,Wunderground v.1.15,2013-01-12 12:55:00,
2013-01-12 07:00:00,68.3,67.1,29.66,SE,145,5.0,5.0,96,0.00,,,0.00,0,Wunderground v.1.15,2013-01-12 13:00:00,
2013-01-12 07:05:00,68.5,67.3,29.66,SE,145,4.0,5.0,96,0.00,,,0.00,0,Wunderground v.1.15,2013-01-12 13:05:00,
2013-01-12 07:10:00,68.5,67.3,29.66,SSE,148,3.0,3.0,96,0.00,,,0.00,0,Wunderground v.1.15,2013-01-12 13:10:00,
2013-01-12 07:15:00,68.5,67.3,29.65,SSE,148,2.0,3.0,96,0.00,,,0.00,0,Wunderground v.1.15,2013-01-12 13:15:00,
2013-01-12 07:20:00,68.5,67.3,29.65,SSE,148,2.0,2.0,96,0.00,,,0.00,0,Wunderground v.1.15,2013-01-12 13:20:00,
2013-01-12 07:30:00,68.6,67.4,29.67,SSE,147,2.0,6.0,96,0.00,,,0.00,0,Wunderground v.1.15,2013-01-12 13:30:00,
2013-01-12 07:35:00,68.6,67.4,29.67,SSE,150,4.0,6.0,96,0.00,,,0.00,0,Wunderground v.1.15,2013-01-12 13:35:00,
2013-01-12 07:40:00,68.7,67.5,29.67,SSE,168,6.0,6.0,96,0.00,,,0.00,0,Wunderground v.1.15,2013-01-12 13:40:00,
2013-01-12 07:45:00,68.7,67.5,29.67,SSE,148,7.0,7.0,96,0.00,,,0.00,0,Wunderground v.1.15,2013-01-12 13:45:00,
2013-01-12 07:50:00,68.8,67.6,29.67,SSE,154,6.0,6.0,96,0.00,,,0.00,0,Wunderground v.1.15,2013-01-12 13:50:00,
2013-01-12 07:55:00,68.8,67.6,29.67,SSE,155,4.0,6.0,96,0.00,,,0.00,0,Wunderground v.1.15,2013-01-12 13:55:00,
2013-01-12 08:00:00,68.8,67.6,29.67,SSE,155,4.0,7.0,96,0.00,,,0.00,0,Wunderground v.1.15,2013-01-12 14:00:00,
2013-01-12 08:05:00,68.8,67.6,29.67,SSE,155,6.0,7.0,96,0.00,,,0.00,5,Wunderground v.1.15,2013-01-12 14:05:00,
2013-01-12 08:10:00,68.8,67.6,29.67,SSE,154,6.0,6.0,96,0.00,,,0.00,9,Wunderground v.1.15,2013-01-12 14:10:00,
2013-01-12 08:20:00,68.9,67.7,29.67,SSE,154,6.0,7.0,96,0.00,,,0.00,28,Wunderground v.1.15,2013-01-12 14:20:00,
2013-01-12 08:25:00,69.0,67.8,29.67,SE,146,6.0,7.0,96,0.00,,,0.00,47,Wunderground v.1.15,2013-01-12 14:25:00,
2013-01-12 08:30:00,69.1,67.9,29.68,SE,145,6.0,6.0,96,0.00,,,0.00,60,Wunderground v.1.15,2013-01-12 14:30:00,
2013-01-12 08:35:00,69.2,67.7,29.68,SSE,152,6.0,13.0,95,0.00,,,0.00,54,Wunderground v.1.15,2013-01-12 14:35:00,
2013-01-12 08:40:00,69.3,67.8,29.68,SSE,155,7.0,7.0,95,0.00,,,0.00,51,Wunderground v.1.15,2013-01-12 14:40:00,
2013-01-12 08:45:00,69.4,67.9,29.68,SSE,155,6.0,7.0,95,0.00,,,0.00,56,Wunderground v.1.15,2013-01-12 14:45:00,
2013-01-12 08:50:00,69.4,67.9,29.68,SSE,153,6.0,6.0,95,0.00,,,0.00,53,Wunderground v.1.15,2013-01-12 14:50:00,
2013-01-12 09:00:00,69.6,68.1,29.68,SE,145,6.0,6.0,95,0.00,,,0.00,58,Wunderground v.1.15,2013-01-12 15:00:00,
2013-01-12 09:05:00,69.7,68.2,29.68,SSE,150,5.0,7.0,95,0.00,,,0.00,58,Wunderground v.1.15,2013-01-12 15:05:00,
2013-01-12 09:15:00,69.8,68.0,29.68,SSE,152,5.0,6.0,94,0.00,,,0.00,47,Wunderground v.1.15,2013-01-12 15:15:00,
2013-01-12 09:20:00,69.8,68.0,29.68,SSE,148,6.0,6.0,94,0.00,,,0.00,76,Wunderground v.1.15,2013-01-12 15:20:00,
2013-01-12 09:25:00,69.9,68.1,29.68,SSE,150,6.0,7.0,94,0.00,,,0.00,51,Wunderground v.1.15,2013-01-12 15:25:00,
2013-01-12 09:30:00,69.9,68.1,29.68,SSE,148,5.0,9.0,94,0.00,,,0.00,58,Wunderground v.1.15,2013-01-12 15:30:00,
2013-01-12 09:35:00,70.0,68.2,29.68,SSE,153,6.0,9.0,94,0.00,,,0.00,77,Wunderground v.1.15,2013-01-12 15:35:00,
2013-01-12 09:40:00,70.1,68.3,29.68,South,172,7.0,10.0,94,0.00,,,0.00,104,Wunderground v.1.15,2013-01-12 15:40:00,
2013-01-12 09:45:00,70.2,68.4,29.68,SSE,165,7.0,10.0,94,0.00,,,0.00,70,Wunderground v.1.15,2013-01-12 15:45:00,
2013-01-12 09:50:00,70.3,68.5,29.68,SSE,167,6.0,9.0,94,0.00,,,0.00,88,Wunderground v.1.15,2013-01-12 15:50:00,
2013-01-12 09:55:00,70.3,68.2,29.68,SSE,165,6.0,9.0,93,0.00,,,0.00,63,Wunderground v.1.15,2013-01-12 15:55:00,
2013-01-12 10:00:00,70.4,68.3,29.69,SSE,165,7.0,9.0,93,0.00,,,0.00,58,Wunderground v.1.15,2013-01-12 16:00:00,
2013-01-12 10:05:00,70.4,68.3,29.69,South,175,7.0,9.0,93,0.00,,,0.00,65,Wunderground v.1.15,2013-01-12 16:05:00,
2013-01-12 10:10:00,70.4,68.3,29.69,South,173,6.0,10.0,93,0.00,,,0.00,69,Wunderground v.1.15,2013-01-12 16:10:00,
2013-01-12 10:15:00,70.4,68.3,29.68,SSE,160,6.0,10.0,93,0.00,,,0.00,65,Wunderground v.1.15,2013-01-12 16:15:00,
2013-01-12 10:20:00,70.5,68.4,29.68,SSE,162,7.0,7.0,93,0.00,,,0.00,90,Wunderground v.1.15,2013-01-12 16:20:00,
2013-01-12 10:30:00,70.5,68.4,29.67,SE,145,10.0,10.0,93,0.00,,,0.00,102,Wunderground v.1.15,2013-01-12 16:30:00,
2013-01-12 10:35:00,70.6,68.2,29.67,SE,139,9.0,11.0,92,0.00,,,0.00,100,Wunderground v.1.15,2013-01-12 16:35:00,
2013-01-12 10:40:00,70.6,68.2,29.67,SE,124,8.0,11.0,92,0.00,,,0.00,127,Wunderground v.1.15,2013-01-12 16:40:00,
2013-01-12 10:50:00,70.7,68.3,29.65,South,177,8.0,8.0,92,0.00,,,0.00,51,Wunderground v.1.15,2013-01-12 16:50:00,
2013-01-12 10:55:00,70.7,68.3,29.65,South,171,8.0,9.0,92,0.00,,,0.00,62,Wunderground v.1.15,2013-01-12 16:55:00,
2013-01-12 11:00:00,70.7,68.3,29.67,South,182,8.0,8.0,92,0.00,,,0.00,46,Wunderground v.1.15,2013-01-12 17:00:00,
2013-01-12 11:05:00,70.8,68.4,29.67,South,187,8.0,12.0,92,0.00,,,0.00,44,Wunderground v.1.15,2013-01-12 17:05:00,
2013-01-12 11:10:00,70.7,68.3,29.67,South,169,9.0,9.0,92,0.00,,,0.00,40,Wunderground v.1.15,2013-01-12 17:10:00,
2013-01-12 11:15:00,70.7,68.3,29.67,South,180,9.0,11.0,92,0.00,,,0.00,23,Wunderground v.1.15,2013-01-12 17:15:00,
2013-01-12 11:20:00,70.6,68.2,29.67,South,169,8.0,10.0,92,0.00,,,0.00,33,Wunderground v.1.15,2013-01-12 17:20:00,
2013-01-12 11:25:00,70.6,68.2,29.67,SSE,166,7.0,10.0,92,0.00,,,0.00,111,Wunderground v.1.15,2013-01-12 17:25:00,
2013-01-12 11:30:00,70.7,68.3,29.65,South,176,8.0,11.0,92,0.00,,,0.00,58,Wunderground v.1.15,2013-01-12 17:30:00,
2013-01-12 11:35:00,70.7,68.3,29.65,South,174,8.0,11.0,92,0.00,,,0.00,93,Wunderground v.1.15,2013-01-12 17:35:00,
2013-01-12 11:45:00,70.8,68.4,29.64,South,169,9.0,11.0,92,0.00,,,0.00,130,Wunderground v.1.15,2013-01-12 17:45:00,
2013-01-12 11:50:00,70.8,68.4,29.64,South,173,10.0,11.0,92,0.00,,,0.00,125,Wunderground v.1.15,2013-01-12 17:50:00,
2013-01-12 11:55:00,70.9,68.1,29.64,South,169,11.0,11.0,91,0.00,,,0.00,163,Wunderground v.1.15,2013-01-12 17:55:00,
2013-01-12 12:00:00,71.2,68.4,29.62,South,169,9.0,9.0,91,0.00,,,0.00,171,Wunderground v.1.15,2013-01-12 18:00:00,
2013-01-12 12:05:00,71.3,68.5,29.62,SSE,161,6.0,9.0,91,0.00,,,0.00,146,Wunderground v.1.15,2013-01-12 18:05:00,
2013-01-12 12:10:00,71.5,68.7,29.62,South,182,6.0,9.0,91,0.00,,,0.00,90,Wunderground v.1.15,2013-01-12 18:10:00,
2013-01-12 12:15:00,71.5,68.4,29.63,SSW,195,7.0,9.0,90,0.00,,,0.00,58,Wunderground v.1.15,2013-01-12 18:15:00,
2013-01-12 12:20:00,71.4,68.3,29.63,SSW,193,8.0,10.0,90,0.00,,,0.00,42,Wunderground v.1.15,2013-01-12 18:20:00,
2013-01-12 12:30:00,71.3,68.2,29.63,SSW,196,8.0,8.0,90,0.00,,,0.00,46,Wunderground v.1.15,2013-01-12 18:30:00,
2013-01-12 12:35:00,71.3,68.2,29.63,SSE,149,8.0,8.0,90,0.00,,,0.00,91,Wunderground v.1.15,2013-01-12 18:35:00,
2013-01-12 12:45:00,71.3,68.2,29.64,SW,225,4.0,7.0,90,0.00,,,0.00,21,Wunderground v.1.15,2013-01-12 18:45:00,
2013-01-12 12:50:00,71.3,68.2,29.64,SW,223,5.0,5.0,90,0.00,,,0.00,39,Wunderground v.1.15,2013-01-12 18:50:00,
2013-01-12 12:55:00,71.3,68.2,29.64,SW,222,4.0,6.0,90,0.00,,,0.00,23,Wunderground v.1.15,2013-01-12 18:55:00,
2013-01-12 13:00:00,71.3,68.2,29.62,SW,221,4.0,4.0,90,0.00,,,0.00,84,Wunderground v.1.15,2013-01-12 19:00:00,
2013-01-12 13:05:00,71.3,68.5,29.62,SW,221,3.0,5.0,91,0.00,,,0.00,125,Wunderground v.1.15,2013-01-12 19:05:00,
2013-01-12 13:10:00,71.6,68.5,29.62,SW,217,3.0,6.0,90,0.00,,,0.00,202,Wunderground v.1.15,2013-01-12 19:10:00,
2013-01-12 13:15:00,72.0,68.6,29.61,SW,214,5.0,6.0,89,0.00,,,0.00,149,Wunderground v.1.15,2013-01-12 19:15:00,
2013-01-12 13:25:00,72.2,68.8,29.61,SSW,207,3.0,5.0,89,0.00,,,0.00,214,Wunderground v.1.15,2013-01-12 19:25:00,
2013-01-12 13:30:00,72.5,68.7,29.60,SSW,207,4.0,4.0,88,0.00,,,0.00,227,Wunderground v.1.15,2013-01-12 19:30:00,
2013-01-12 13:35:00,72.8,69.0,29.60,SSW,205,4.0,4.0,88,0.00,,,0.00,225,Wunderground v.1.15,2013-01-12 19:35:00,
2013-01-12 13:40:00,72.8,68.7,29.60,SSW,198,4.0,6.0,87,0.00,,,0.00,207,Wunderground v.1.15,2013-01-12 19:40:00,
2013-01-12 13:50:00,73.2,69.1,29.60,SSW,199,5.0,5.0,87,0.00,,,0.00,221,Wunderground v.1.15,2013-01-12 19:50:00,
2013-01-12 14:00:00,73.4,69.0,29.59,SSW,194,4.0,4.0,86,0.00,,,0.00,237,Wunderground v.1.15,2013-01-12 20:00:00,
2013-01-12 14:05:00,73.4,68.6,29.59,SSW,196,6.0,6.0,85,0.00,,,0.00,181,Wunderground v.1.15,2013-01-12 20:05:00,
2013-01-12 14:15:00,73.3,68.5,29.58,SSW,195,8.0,9.0,85,0.00,,,0.00,214,Wunderground v.1.15,2013-01-12 20:15:00,
2013-01-12 14:20:00,73.3,68.5,29.58,SSW,195,8.0,8.0,85,0.00,,,0.00,172,Wunderground v.1.15,2013-01-12 20:20:00,
2013-01-12 14:30:00,73.4,68.6,29.58,SSW,196,7.0,7.0,85,0.00,,,0.00,151,Wunderground v.1.15,2013-01-12 20:30:00,
2013-01-12 14:35:00,73.5,68.7,29.58,SSW,196,6.0,7.0,85,0.00,,,0.00,162,Wunderground v.1.15,2013-01-12 20:35:00,
2013-01-12 14:45:00,73.5,68.4,29.58,SSW,192,6.0,10.0,84,0.00,,,0.00,146,Wunderground v.1.15,2013-01-12 20:45:00,
2013-01-12 14:50:00,73.4,68.3,29.58,South,189,8.0,8.0,84,0.00,,,0.00,111,Wunderground v.1.15,2013-01-12 20:50:00,
2013-01-12 14:55:00,73.3,68.2,29.58,South,178,7.0,8.0,84,0.00,,,0.00,148,Wunderground v.1.15,2013-01-12 20:55:00,
2013-01-12 15:00:00,73.4,68.3,29.57,South,183,7.0,7.0,84,0.00,,,0.00,148,Wunderground v.1.15,2013-01-12 21:00:00,
2013-01-12 15:05:00,73.4,68.3,29.57,South,176,7.0,7.0,84,0.00,,,0.00,155,Wunderground v.1.15,2013-01-12 21:05:00,
2013-01-12 15:10:00,73.4,67.9,29.57,South,169,6.0,6.0,83,0.00,,,0.00,142,Wunderground v.1.15,2013-01-12 21:10:00,
2013-01-12 15:20:00,73.6,68.1,29.57,South,169,3.0,4.0,83,0.00,,,0.00,183,Wunderground v.1.15,2013-01-12 21:20:00,
2013-01-12 15:25:00,73.7,68.2,29.57,South,170,4.0,4.0,83,0.00,,,0.00,172,Wunderground v.1.15,2013-01-12 21:25:00,